TimeCDT,TemperatureF,Dew PointF,Humidity,Sea Level PressureIn,VisibilityMPH,Wind Direction,Wind SpeedMPH,Gust SpeedMPH,PrecipitationIn,Events,Conditions,WindDirDegrees,DateUTC
12:52 AM,43.0,41.0,93,30.02,10.0,Calm,Calm,-,N/A,,Clear,0,2011-10-23 05:52:00
1:52 AM,41.0,39.9,96,30.01,10.0,Calm,Calm,-,N/A,,Clear,0,2011-10-23 06:52:00
2:52 AM,41.0,39.0,93,30.01,10.0,Calm,Calm,-,N/A,,Clear,0,2011-10-23 07:52:00
3:52 AM,41.0,39.9,96,29.99,10.0,Calm,Calm,-,N/A,,Clear,0,2011-10-23 08:52:00
4:52 AM,39.0,37.9,96,29.99,9.0,Calm,Calm,-,N/A,,Clear,0,2011-10-23 09:52:00
5:52 AM,37.9,37.9,100,30.01,10.0,Calm,Calm,-,N/A,,Clear,0,2011-10-23 10:52:00
6:52 AM,37.9,37.0,97,30.01,10.0,Calm,Calm,-,N/A,,Clear,0,2011-10-23 11:52:00
7:52 AM,37.0,36.0,96,30.01,9.0,Calm,Calm,-,N/A,,Clear,0,2011-10-23 12:52:00
8:52 AM,42.1,39.9,92,30.03,10.0,Calm,Calm,-,N/A,,Clear,0,2011-10-23 13:52:00
9:52 AM,51.1,45.0,80,30.03,10.0,South,3.5,-,N/A,,Clear,190,2011-10-23 14:52:00
10:52 AM,59.0,48.0,67,30.02,10.0,South,4.6,-,N/A,,Clear,180,2011-10-23 15:52:00
11:52 AM,66.9,50.0,54,30.01,10.0,SW,6.9,-,N/A,,Clear,220,2011-10-23 16:52:00
12:52 PM,72.0,50.0,46,29.99,10.0,South,5.8,-,N/A,,Clear,190,2011-10-23 17:52:00
1:52 PM,75.9,46.0,35,29.96,10.0,SSW,10.4,-,N/A,,Clear,200,2011-10-23 18:52:00
2:52 PM,79.0,42.1,27,29.94,10.0,SW,17.3,20.7,N/A,,Clear,230,2011-10-23 19:52:00
3:52 PM,80.1,41.0,25,29.92,10.0,WSW,10.4,19.6,N/A,,Clear,250,2011-10-23 20:52:00
4:52 PM,80.1,39.9,24,29.91,10.0,WSW,9.2,-,N/A,,Clear,250,2011-10-23 21:52:00
5:52 PM,78.1,39.9,25,29.91,10.0,WSW,4.6,-,N/A,,Clear,250,2011-10-23 22:52:00
6:52 PM,70.0,39.0,32,29.93,10.0,West,3.5,-,N/A,,Clear,260,2011-10-23 23:52:00
7:52 PM,64.9,39.9,40,29.97,10.0,Calm,Calm,-,N/A,,Clear,0,2011-10-24 00:52:00
8:52 PM,64.9,39.0,39,29.99,10.0,West,4.6,-,N/A,,Clear,280,2011-10-24 01:52:00
9:52 PM,57.0,39.0,51,30.02,10.0,Calm,Calm,-,N/A,,Clear,0,2011-10-24 02:52:00
10:52 PM,55.0,39.9,57,30.04,10.0,WSW,3.5,-,N/A,,Clear,250,2011-10-24 03:52:00
11:52 PM,51.8,39.2,62,30.05,10.0,WSW,3.5,-,N/A,,Clear,240,2011-10-24 04:52:00